Location: Berlise
(49.6641°N, 4.1077°E)
Time: 02:06:36
(UTC+00:00)

ALOS - Pass Details

Date: 27 January 2021
Orbit: 683 x 685 km, 97.9° (Epoch: 28 February)

Event Time Altitude Azimuth Distance (km) Brightness Sun altitude
Rises 04:33:17 0° 11° (NNE) 3,060 5.8 -27.3°
Reaches altitude 10° 04:35:33 10° 10° (N) 2,140 4.9 -26.9°
Enters shadow 04:37:51 29° 3° (N) 1,254 3.6 -26.5°
